Theta_e
295 294 294 295 295 295 294 294 294 293 294 283 280 277 270 269 266 279 281 283 279 270 262 268 268 263 264 271 271 272 271 268 269 268 269 266 269 266 266 267 263 264 265 268 266 265 258 258 263 265 264 265 269 270 270 270 267 265 264 262 264 272 256 257 255 257 260 261 266 267 266 268 267 266 265 263 260 260 259 261 263 256 259 255 259 259 261
294 294 294 294 294 294 294 294 294 293 293 283 279 271 267 270 270 274 281 282 277 268 261 261 261 264 261 266 268 271 269 266 265 265 267 266 265 265 265 265 267 263 264 263 262 265 255 260 263 265 268 266 271 270 270 272 269 266 264 260 263 255 259 255 252 246 253 249 255 258 261 262 260 262 264 263 261 260 259 258 258 256 258 260 259 259 263
294 294 294 294 294 293 293 294 293 293 293 290 279 270 270 264 268 275 277 280 278 267 260 258 257 260 259 259 262 264 266 268 268 267 266 267 266 264 263 266 266 265 262 258 260 262 261 255 261 262 263 264 269 267 265 267 268 270 271 273 264 253 255 251 251 249 248 245 246 245 249 250 258 258 263 262 262 263 259 252 256 254 261 260 255 253 266
293 294 294 293 293 293 293 293 293 292 292 293 278 273 266 264 259 264 267 271 272 270 269 265 259 254 258 258 259 259 261 265 267 268 265 269 266 268 267 265 265 264 263 259 256 262 263 259 253 259 259 261 264 261 263 264 265 272 273 273 265 254 255 250 251 252 252 253 250 256 264 258 254 256 260 260 262 263 262 260 256 253 257 255 256 257 260
293 293 293 293 294 294 293 293 292 292 292 292 280 269 267 264 265 261 262 262 266 261 265 261 259 262 261 257 256 257 257 260 262 267 261 267 265 265 264 263 262 262 262 260 257 258 259 260 258 258 261 261 262 256 260 260 268 273 271 269 258 252 252 255 253 254 257 257 254 259 263 258 260 260 259 261 262 262 260 257 253 259 255 253 260 259 260
293 293 292 293 294 293 293 292 292 291 291 292 275 269 265 262 266 270 270 265 263 262 261 261 262 265 264 259 259 258 260 257 258 265 267 264 263 259 261 261 262 260 260 257 255 252 252 251 255 254 254 254 254 258 259 259 269 270 265 268 263 254 252 252 256 254 257 256 255 257 257 258 259 259 260 259 261 260 257 257 259 257 255 254 261 260 259
293 292 292 292 292 292 292 292 291 291 290 290 272 267 266 265 267 269 270 263 260 261 267 269 268 268 268 267 264 262 263 265 267 267 268 269 267 268 260 265 265 264 262 261 256 258 256 255 256 256 255 257 258 254 258 263 264 264 263 260 259 249 245 250 251 252 254 255 256 256 257 258 257 255 259 259 260 260 260 258 259 259 257 260 260 260 260
292 292 292 292 291 291 291 292 291 290 290 282 275 271 267 268 263 266 267 264 263 265 268 268 266 261 269 262 263 265 268 267 268 270 265 260 264 264 262 263 266 266 266 266 263 265 264 263 259 261 260 259 263 261 264 261 265 264 262 261 260 257 253 262 256 252 251 253 256 257 257 255 253 257 258 259 258 260 261 260 260 258 259 261 261 259 259
292 292 291 290 290 291 291 291 291 289 290 274 273 276 279 276 272 269 267 266 268 269 268 269 268 264 267 268 269 269 266 265 266 263 264 263 263 265 263 265 262 264 263 264 263 265 263 262 262 264 264 258 263 259 262 264 261 262 262 260 257 259 256 254 255 253 249 252 255 257 256 256 255 254 257 257 258 255 258 258 260 259 257 259 259 256 257
292 291 290 290 291 291 291 290 290 288 288 274 271 274 274 271 273 273 269 265 272 266 266 264 261 260 265 267 266 265 264 264 261 259 267 270 269 266 264 260 260 256 259 260 262 265 266 265 265 264 264 264 265 265 263 262 262 257 260 259 258 251 251 251 251 251 253 253 252 255 255 252 250 251 255 258 259 260 261 261 262 261 261 258 254 256 258
290 290 290 291 291 290 290 289 289 289 282 272 268 272 273 274 272 272 270 265 268 267 260 256 259 266 267 267 264 266 264 263 260 257 259 260 264 262 262 259 255 256 261 264 268 269 269 269 267 266 263 262 263 263 263 265 263 263 259 254 250 253 253 250 250 251 254 252 252 253 252 247 248 258 261 261 258 260 258 259 261 258 255 258 257 256 254
290 290 290 290 290 289 289 289 288 289 287 276 276 278 279 278 276 272 266 263 263 264 264 263 265 266 265 264 260 261 261 262 262 258 256 257 265 263 261 259 258 258 267 271 271 271 269 268 265 264 261 260 260 261 262 262 262 263 262 259 252 254 253 249 251 251 252 249 250 249 246 247 256 258 259 259 258 259 259 256 251 254 255 256 255 255 254
290 290 290 289 288 289 288 288 288 288 287 278 276 274 278 277 273 269 266 263 263 267 264 263 264 264 264 264 262 262 260 260 259 264 263 262 261 263 263 262 260 264 271 269 267 264 259 254 254 253 253 252 250 256 259 258 261 262 262 263 261 257 256 252 253 250 250 248 250 242 243 248 256 258 256 259 259 259 257 255 253 252 253 254 252 254 253
290 288 288 288 289 288 288 287 286 287 287 282 275 272 271 270 267 266 266 265 265 262 262 263 263 262 262 260 259 258 255 258 258 257 258 263 261 260 265 267 269 271 267 261 255 256 251 246 245 244 252 244 244 250 255 256 256 258 260 261 264 261 257 252 251 251 247 246 247 249 249 253 254 255 256 256 256 256 255 250 255 250 253 254 253 254 253
288 288 288 289 288 287 287 286 286 287 285 282 274 272 271 272 272 272 271 264 264 262 260 256 258 260 261 259 254 253 253 255 258 258 256 261 263 265 265 267 269 267 265 262 253 249 250 244 246 242 242 242 244 245 246 250 253 258 260 261 262 261 257 256 251 248 250 248 243 242 245 244 247 253 257 258 257 257 256 255 254 250 251 254 253 251 252
288 289 288 287 287 286 285 285 285 286 285 283 273 271 271 273 267 268 265 262 261 257 260 262 263 261 259 257 258 257 255 252 252 249 251 254 258 262 265 266 267 266 258 253 249 247 245 249 245 242 244 245 244 245 245 245 250 252 256 258 259 259 259 256 255 253 251 250 246 244 241 244 252 256 256 257 257 257 257 249 247 252 251 253 253 251 252
289 288 287 286 286 285 285 285 285 285 283 282 269 269 270 272 267 262 263 264 263 259 262 263 263 262 258 257 259 259 254 254 257 251 251 252 258 259 258 263 264 262 255 251 248 249 250 245 242 241 241 243 246 246 243 243 244 246 251 252 250 252 251 252 251 250 248 246 247 245 246 246 251 255 256 257 257 258 256 244 245 250 250 252 252 251 251
288 287 286 285 285 285 284 285 285 284 283 283 273 268 266 272 269 267 267 263 260 259 262 263 261 258 254 254 255 252 256 253 256 254 254 254 253 255 254 256 257 260 259 255 249 245 245 244 248 245 246 245 249 248 245 244 244 246 245 248 245 249 248 249 251 246 251 252 245 244 246 252 253 255 255 257 258 254 244 245 250 252 252 253 253 252 252
287 286 285 285 284 284 284 284 284 284 283 282 271 268 270 272 268 262 264 262 259 257 261 261 260 257 258 263 262 260 257 258 254 250 249 248 257 258 259 253 260 255 255 252 245 245 244 245 243 242 246 247 249 246 243 246 246 248 250 247 245 243 245 247 244 243 245 243 245 248 244 248 253 254 255 255 253 243 246 252 247 250 252 254 254 252 252
286 285 285 284 284 284 284 284 284 283 282 282 275 266 268 271 269 265 264 258 258 258 257 257 256 257 260 257 255 256 255 257 252 251 248 250 252 253 256 254 256 255 252 248 251 244 248 246 246 247 247 243 248 248 247 245 249 250 248 253 250 245 246 243 245 243 242 243 243 242 244 246 250 253 254 253 250 252 251 249 249 252 253 253 254 253 253
286 285 284 283 283 284 284 284 284 283 282 282 278 267 267 270 270 267 266 265 261 258 258 260 260 261 260 262 261 259 255 255 254 253 255 252 254 250 245 247 251 252 249 246 247 248 246 247 245 249 247 248 250 252 246 243 246 251 254 251 250 252 248 242 243 249 245 242 242 243 246 250 249 252 247 250 251 250 248 251 251 252 252 253 253 253 253
285 284 284 283 283 283 284 284 284 283 282 282 278 269 266 266 268 270 269 267 260 255 257 261 262 261 263 264 266 266 263 261 261 259 255 251 254 254 250 251 250 252 254 251 249 250 251 251 247 248 247 246 247 249 243 246 245 245 246 249 247 252 249 247 248 249 249 244 242 250 249 249 251 251 251 250 251 251 251 252 251 251 252 252 252 251 252
285 284 284 283 283 283 283 283 283 283 282 281 275 264 264 263 266 269 267 264 265 266 264 259 259 261 264 265 268 268 266 268 267 264 257 252 252 252 255 256 257 263 262 260 254 253 250 251 249 249 249 247 250 247 246 249 244 243 249 251 252 246 250 249 248 250 249 250 250 249 248 249 249 251 251 250 249 250 250 251 250 252 252 251 250 251 251
285 284 283 283 283 282 282 282 282 282 281 280 275 268 265 266 267 266 267 263 257 257 260 261 259 255 256 260 264 266 267 266 268 267 265 258 251 251 257 260 259 256 258 260 260 253 251 254 254 251 250 248 248 248 246 247 246 247 246 249 246 247 249 247 247 246 250 248 248 249 250 250 250 249 250 250 251 251 250 249 250 250 250 250 251 249 249
285 284 283 283 282 282 282 282 282 281 281 279 275 272 267 264 263 262 258 258 255 253 250 249 252 259 263 265 266 262 264 266 268 267 266 264 257 252 252 259 263 259 257 260 253 253 253 255 253 254 252 252 253 250 248 248 248 249 248 246 247 251 251 251 247 245 250 249 248 248 250 251 251 251 250 250 250 249 250 251 250 249 248 248 249 247 247
285 284 283 283 282 281 282 282 282 281 280 279 276 266 265 265 264 261 262 261 254 253 251 248 252 261 264 263 261 263 265 266 265 265 265 264 263 262 262 262 263 264 257 259 253 255 250 252 251 250 251 252 256 248 244 248 246 247 248 245 249 249 253 245 247 247 249 249 249 249 250 249 250 251 251 252 251 250 248 248 248 247 247 247 245 246 246
285 284 283 283 282 281 281 281 281 280 280 278 271 267 266 265 266 264 259 259 256 256 251 249 250 252 259 260 263 264 264 264 264 264 264 263 263 262 260 260 260 257 253 256 260 256 254 253 251 252 251 254 251 246 246 247 248 246 245 248 250 250 250 248 250 246 246 251 251 248 246 247 249 249 250 250 250 250 250 248 247 246 245 245 245 246 246
284 284 284 283 282 281 281 280 280 280 279 277 272 267 267 267 267 265 263 259 257 255 251 248 251 254 258 255 262 262 263 265 263 263 263 263 262 261 259 256 254 252 252 253 254 256 254 254 252 249 249 245 249 249 248 248 248 243 245 251 252 252 253 252 251 249 249 251 248 250 249 249 250 250 250 250 250 249 247 247 246 246 246 245 245 246 246
283 284 284 284 283 282 281 280 280 279 278 274 265 267 265 266 267 271 268 262 259 256 256 254 251 249 250 254 262 261 262 263 263 263 262 262 260 260 258 257 251 253 252 252 250 249 249 249 247 245 247 250 249 244 247 246 243 246 249 249 251 251 251 252 252 250 250 249 248 249 248 248 249 250 250 249 247 247 247 247 247 246 245 245 244 245 246
282 283 283 283 283 282 282 281 280 279 277 265 263 254 253 262 266 270 272 267 260 258 254 248 248 250 249 255 254 257 258 261 262 263 264 262 258 258 257 256 255 259 251 250 249 251 247 246 245 247 254 255 250 247 247 239 240 246 247 249 249 250 251 250 251 250 251 250 250 250 249 249 249 248 248 247 247 246 244 244 245 245 245 245 244 245 246
282 282 282 282 282 282 281 281 280 280 276 258 250 252 252 254 262 267 273 264 259 257 250 251 250 251 248 255 255 257 256 259 259 258 260 262 261 259 258 258 257 257 245 244 245 246 246 244 244 247 252 257 257 249 244 244 241 240 246 248 249 249 250 251 251 251 250 249 248 248 247 246 246 246 246 245 244 246 246 245 247 248 247 246 245 245 245
282 282 282 281 281 280 280 280 279 277 268 264 257 253 251 258 261 269 272 265 257 255 251 249 249 248 249 256 255 257 256 255 256 255 256 261 253 256 257 255 250 257 260 246 246 247 243 242 243 245 244 255 252 243 244 241 243 244 245 247 248 249 249 248 248 249 249 249 248 246 245 245 247 246 244 246 245 245 244 244 245 244 246 246 245 244 244
282 282 281 281 281 280 279 279 278 275 269 273 276 276 276 276 276 272 270 257 260 251 246 244 245 251 252 249 249 251 255 252 249 253 249 258 253 253 249 255 250 253 262 255 243 244 243 241 244 245 246 251 245 245 239 241 246 248 246 247 246 246 246 247 247 246 247 245 245 244 242 243 244 245 245 245 245 244 244 244 244 243 243 242 243 245 246
282 281 281 281 281 280 278 278 277 276 274 265 259 265 269 274 273 274 259 257 253 252 247 247 246 247 247 247 249 251 256 251 248 246 244 256 251 250 248 248 251 252 247 247 243 243 245 245 242 241 243 243 244 242 241 245 245 243 244 245 245 245 245 245 244 244 244 243 243 244 244 243 244 243 243 243 244 244 244 242 242 243 242 244 243 244 245
281 281 280 280 279 278 276 276 266 267 260 262 261 262 267 274 273 270 265 257 253 251 246 251 247 243 246 243 243 245 247 250 248 244 248 250 255 249 249 249 247 249 249 245 242 239 240 242 241 244 240 238 243 241 244 244 244 241 242 243 243 243 243 244 244 245 244 242 244 243 243 244 244 245 244 245 243 244 242 242 242 242 243 243 243 244 244
280 280 280 279 278 276 272 272 268 258 257 259 259 272 274 273 271 264 262 258 254 248 249 247 245 241 243 246 247 248 255 249 248 245 243 247 249 247 245 245 246 243 241 242 242 238 240 248 247 243 236 242 244 245 246 244 245 244 244 245 245 246 246 246 243 243 243 243 243 243 242 242 243 243 243 243 243 242 241 242 242 242 242 242 244 245 245
280 279 279 276 267 264 261 261 269 264 259 266 270 274 274 272 265 263 261 257 259 254 250 243 248 245 242 244 241 244 249 247 245 243 243 248 246 247 245 245 243 250 246 238 241 244 244 249 239 238 238 242 240 242 245 246 247 246 245 245 246 245 245 243 244 244 243 241 239 241 241 241 242 241 242 242 242 241 241 242 242 243 243 243 244 243 244
280 278 267 262 255 254 254 259 261 270 276 274 273 266 260 258 251 253 250 251 252 257 248 248 246 244 241 246 246 252 252 242 242 246 243 241 251 244 245 249 251 257 244 240 240 241 238 240 241 240 240 245 245 245 245 244 245 245 245 244 244 246 247 246 245 244 240 240 241 239 240 240 241 242 241 241 242 242 242 243 241 243 243 244 244 244 244
278 268 261 256 253 256 257 258 271 276 271 271 265 257 256 249 250 247 249 248 247 249 245 246 245 239 242 243 243 257 251 245 245 238 244 251 251 245 245 241 251 250 238 240 244 249 241 237 237 236 242 240 242 244 244 245 243 243 244 244 245 246 246 246 246 245 244 245 243 240 241 244 244 244 241 241 242 242 243 243 244 244 240 242 242 241 241
268 265 259 254 253 258 268 270 275 273 269 262 255 250 249 250 253 251 247 246 248 245 244 245 241 239 241 245 245 244 256 246 244 245 243 246 255 243 245 243 246 246 239 239 239 239 243 239 234 238 244 240 242 245 244 245 246 245 243 243 243 244 245 247 246 246 247 246 245 244 244 243 243 244 244 244 242 244 244 242 244 241 241 242 243 243 242
268 264 260 258 257 253 261 264 258 254 255 253 252 250 248 252 246 245 247 243 243 245 242 243 244 245 245 244 245 241 251 249 240 241 241 243 252 253 245 242 246 243 241 239 241 239 237 239 236 238 245 239 237 244 245 245 246 246 245 244 244 245 245 245 245 245 244 245 245 244 244 241 241 241 244 242 243 242 242 242 241 241 240 240 241 242 243
272 266 262 262 261 260 260 256 254 256 251 251 251 248 244 246 248 248 247 249 249 244 246 246 246 243 242 246 245 246 245 242 244 245 242 241 255 243 238 240 243 241 237 239 238 237 239 240 235 238 243 245 244 243 241 245 245 242 245 245 246 246 244 244 245 244 245 245 245 245 245 242 241 241 241 241 241 241 241 241 242 241 241 242 241 242 242
275 272 266 254 256 254 252 256 252 249 250 249 249 250 246 246 248 248 247 245 243 244 246 246 245 252 250 247 246 244 246 254 252 242 239 239 252 246 239 239 240 240 240 239 238 238 238 236 234 244 245 243 244 245 245 245 246 245 246 245 245 246 246 245 245 245 244 244 243 244 242 240 240 241 240 239 239 238 239 241 241 241 241 240 240 242 242
270 265 257 249 255 254 256 253 255 254 251 246 249 252 248 248 250 248 248 248 245 245 243 246 245 244 244 244 242 246 251 253 257 244 240 241 240 237 241 237 235 239 240 238 237 239 238 236 244 244 239 238 240 240 245 246 245 244 244 244 244 244 245 245 244 244 244 244 244 244 241 240 239 240 238 236 238 240 241 241 241 241 241 239 240 241 242
259 255 251 253 251 252 255 253 252 251 253 252 253 246 247 253 251 245 248 246 245 248 243 242 244 244 245 243 244 247 253 247 250 244 240 241 240 238 240 240 238 237 237 238 235 236 238 243 246 242 243 244 246 246 244 243 242 244 243 239 243 242 242 243 244 244 245 244 243 239 240 241 239 240 239 239 239 238 239 240 241 240 239 241 241 241 240
255 253 252 253 252 254 253 251 248 251 251 250 249 248 246 246 243 243 243 241 242 244 245 243 241 243 244 240 245 241 236 239 242 243 241 240 240 239 239 237 238 239 238 238 237 238 243 246 244 245 246 246 247 244 242 242 241 239 242 243 244 242 242 242 241 241 242 243 242 238 240 238 238 238 240 240 238 238 238 239 239 239 239 238 239 240 240
255 253 249 251 252 250 251 252 250 249 250 246 242 242 246 247 242 245 243 241 245 246 244 241 244 243 242 242 242 244 239 239 239 241 243 240 240 242 243 240 239 236 239 237 236 239 241 244 245 246 245 246 243 238 238 238 235 238 242 242 239 239 238 240 240 240 241 238 237 237 238 238 238 239 237 238 239 239 239 239 239 238 239 239 240 240 240
256 254 254 254 252 250 252 250 247 245 244 244 245 241 242 243 247 246 245 243 247 247 247 245 245 243 245 242 240 241 237 238 242 241 239 239 245 240 238 239 237 234 237 239 243 242 242 242 244 246 246 245 242 240 237 237 235 237 240 241 240 238 235 236 237 239 238 237 238 239 239 237 236 237 237 238 238 239 239 238 238 238 238 238 239 239 239
254 251 255 250 249 246 250 248 248 250 247 242 242 244 244 246 246 244 245 243 246 245 245 242 242 242 244 243 239 243 243 242 242 241 241 239 240 238 237 238 236 240 242 245 246 244 243 245 244 242 241 240 239 241 243 242 241 240 240 240 241 241 240 238 239 240 238 238 238 238 238 238 235 235 235 234 236 239 238 236 236 236 237 238 239 239 239
255 254 251 249 251 251 246 244 250 250 244 243 244 245 243 243 243 244 244 245 242 243 245 247 248 244 241 241 240 237 238 237 240 243 240 239 238 238 239 238 238 242 237 238 241 244 245 242 238 241 240 240 241 241 241 240 240 242 241 241 240 237 239 239 238 238 237 238 237 237 237 236 237 237 237 239 239 237 237 237 238 238 238 238 238 238 239
252 253 250 249 256 254 252 251 252 248 247 248 247 247 247 248 248 248 245 244 245 242 241 241 242 239 241 239 240 244 245 241 243 242 240 238 236 239 239 243 245 244 246 246 247 247 243 239 243 243 240 238 241 241 241 242 241 241 241 240 239 238 237 235 237 237 237 237 236 238 236 238 239 239 238 236 235 236 238 240 240 239 239 238 237 237 238
252 253 254 250 245 248 249 249 249 251 252 247 248 247 250 248 247 244 247 249 246 246 245 241 241 241 241 242 241 241 244 242 241 239 242 243 240 241 237 242 248 249 246 244 245 244 243 241 242 245 245 245 244 243 242 240 239 238 237 238 238 237 237 237 237 237 237 237 236 236 238 238 237 235 235 235 235 235 238 242 242 238 237 237 237 237 238
Wind_Speed
8 8 9 10 11 13 14 15 16 17 17 6 7 2 4 4 0 4 8 8 2 7 6 4 6 3 3 4 1 2 2 1 2 3 4 3 2 2 2 0 1 1 1 1 1 2 2 3 0 1 0 1 2 6 7 5 6 2 2 3 2 7 1 1 4 4 5 7 1 3 7 3 4 4 3 4 2 1 1 1 2 3 5 3 3 3 2
8 9 9 10 11 12 12 14 15 16 16 3 3 6 2 0 0 4 6 10 5 10 3 2 3 1 4 3 0 4 1 1 4 2 2 1 2 1 1 3 1 2 2 2 1 0 1 1 2 1 3 1 3 5 4 4 3 3 3 3 4 5 3 6 2 5 6 3 3 3 3 6 3 1 2 3 2 4 2 2 2 2 5 5 1 13 4
8 8 9 10 11 11 12 13 14 15 16 8 2 1 0 0 1 1 7 11 9 7 2 6 3 2 2 2 8 6 2 0 1 0 1 0 0 1 1 1 0 1 1 1 0 1 3 2 2 2 1 1 2 6 7 7 1 1 2 4 0 4 3 4 2 4 5 3 1 4 1 1 0 1 0 3 7 6 5 1 2 3 3 5 4 2 3
7 8 9 10 10 12 12 12 13 14 15 11 4 1 2 1 1 5 6 8 7 5 2 6 6 2 3 4 1 4 3 3 2 1 2 1 0 1 1 2 1 1 5 2 5 1 1 3 2 2 2 2 2 1 7 5 1 4 2 1 3 1 1 3 5 5 7 6 2 3 2 2 1 2 4 3 1 1 4 2 2 5 5 6 5 1 3
8 8 9 10 13 12 12 13 13 14 14 10 2 2 3 1 4 1 3 4 7 4 5 2 3 2 3 1 1 5 4 2 3 2 1 2 1 1 1 0 1 2 5 1 2 0 3 2 2 4 1 2 2 7 1 7 5 8 1 2 5 1 1 5 6 8 8 6 7 4 3 2 3 5 6 5 6 2 4 5 7 0 6 14 4 3 4
7 8 8 10 11 11 12 13 13 14 13 11 3 2 3 3 1 2 1 2 1 4 4 3 3 1 6 1 2 3 1 3 0 3 2 1 2 1 5 5 2 1 4 5 0 3 2 2 3 4 1 3 5 3 6 2 3 5 0 3 2 2 2 8 7 8 7 4 4 0 1 3 4 4 4 7 6 4 5 7 7 3 6 12 12 11 11
8 8 8 9 10 11 12 12 12 13 12 8 3 3 2 4 1 1 0 2 2 2 3 2 2 1 3 1 4 3 4 2 1 2 3 1 2 2 1 4 5 3 1 1 1 2 1 3 2 2 2 3 1 2 4 2 2 1 1 2 2 5 2 6 5 7 5 4 4 3 5 3 1 3 6 7 8 11 8 7 6 7 8 7 9 12 15
7 8 9 10 10 10 12 12 13 13 11 6 6 2 3 1 1 1 3 2 1 1 1 1 3 2 1 0 3 3 4 6 5 2 4 1 1 3 5 2 3 3 2 2 1 3 1 4 3 3 4 4 2 1 3 2 2 2 0 1 4 7 6 7 1 1 6 6 1 4 4 4 4 6 6 6 6 9 10 8 6 5 7 10 11 12 14
8 9 9 8 9 9 10 11 13 13 9 4 4 2 3 1 1 4 3 2 1 2 1 2 1 0 2 1 4 4 4 3 1 3 1 4 1 3 2 1 3 0 0 1 3 3 3 3 6 5 3 2 0 3 2 3 2 3 1 1 2 5 5 4 1 1 3 1 1 1 2 2 4 5 6 8 8 7 6 9 8 10 10 10 11 8 5
9 8 7 8 9 10 11 11 11 13 9 5 1 2 2 3 1 3 2 2 3 2 1 2 2 1 1 2 2 1 3 2 0 2 2 5 5 1 2 3 3 3 3 4 2 3 2 0 0 1 1 2 3 1 2 1 0 1 1 0 0 2 2 1 1 4 6 3 3 3 1 2 4 6 11 13 11 9 9 10 8 8 3 7 6 8 1
8 7 8 9 10 11 11 11 11 10 6 4 2 1 2 2 1 1 2 5 2 3 2 3 3 1 3 4 4 4 2 3 2 3 2 3 3 4 4 5 2 2 1 0 2 4 3 3 3 0 1 1 2 2 2 3 1 3 2 0 1 1 2 2 1 2 1 5 1 1 2 7 8 1 7 10 10 11 11 10 10 3 1 3 2 2 3
7 7 8 9 10 11 12 11 11 11 6 1 3 3 2 1 2 2 2 2 1 1 4 2 2 3 5 4 4 2 6 6 4 2 2 2 2 3 6 3 3 1 1 3 4 4 3 0 1 1 2 6 2 2 2 2 4 3 1 3 2 1 2 3 2 2 5 1 1 2 9 11 0 3 4 4 1 1 5 3 2 1 2 1 1 2 4
8 9 10 9 10 11 11 11 11 11 11 6 5 3 3 1 3 2 2 3 2 2 4 2 6 5 4 5 6 3 2 3 2 2 2 3 4 3 1 1 1 0 3 4 5 2 1 2 2 0 5 7 3 5 1 3 4 5 2 3 3 2 4 3 1 2 0 3 2 1 7 2 1 2 2 3 4 2 6 2 4 1 1 1 1 0 1
9 9 8 9 10 11 11 11 10 10 12 9 6 3 3 4 3 2 1 3 3 3 2 6 4 6 6 3 5 3 5 6 1 4 2 1 1 1 2 3 1 3 1 2 4 2 2 4 2 4 5 7 3 2 3 4 3 1 3 3 4 3 2 3 2 2 3 3 5 10 3 7 7 5 1 1 1 1 2 4 4 5 2 2 2 1 1
8 9 10 11 12 11 11 10 9 12 14 11 7 4 5 6 2 2 0 4 4 1 3 3 0 1 2 2 3 3 2 1 4 2 1 3 3 0 0 1 3 3 3 1 2 4 2 2 1 2 4 3 1 1 3 1 4 2 3 3 4 4 5 2 4 3 7 3 2 3 2 5 6 3 4 1 2 1 3 2 5 3 3 2 1 2 3
9 11 11 12 11 11 10 9 9 11 14 14 8 5 5 3 0 2 4 4 6 3 1 2 1 2 0 1 1 5 1 1 0 1 2 2 3 3 1 3 2 3 3 3 2 2 1 0 1 2 1 0 2 1 2 3 3 6 4 4 3 0 2 3 7 3 4 1 2 3 3 7 6 4 5 1 1 3 4 4 6 2 4 2 3 2 2
12 12 12 12 11 10 10 9 10 9 8 9 4 4 5 6 4 2 3 5 6 4 1 3 2 1 1 1 3 3 1 0 0 2 1 1 1 1 5 6 3 4 1 2 3 1 1 2 1 1 2 3 2 2 1 1 1 5 9 7 9 6 1 2 1 4 3 1 1 4 3 4 2 4 1 2 1 2 0 3 7 1 5 3 1 3 2
12 12 12 11 10 10 9 9 11 12 13 13 9 6 2 4 2 1 5 6 6 2 1 4 1 2 1 2 2 4 1 2 2 1 2 1 1 1 4 3 3 2 3 1 0 2 1 1 1 1 1 3 1 1 2 4 1 2 1 0 1 0 1 2 8 5 7 6 5 2 5 1 2 3 2 3 2 2 3 7 3 3 5 3 3 3 1
12 12 11 11 10 10 9 8 9 10 12 14 6 5 6 7 5 5 8 5 6 4 4 2 2 4 3 2 1 1 1 3 4 2 0 2 1 1 2 6 1 2 6 1 2 1 1 2 0 1 1 1 1 2 1 1 2 0 1 2 1 2 1 1 2 1 4 5 4 8 5 4 1 0 1 2 2 1 8 2 0 3 3 3 3 1 0
12 12 11 11 11 10 9 8 10 9 8 10 9 5 1 7 5 2 9 6 4 5 2 2 1 6 2 4 2 1 1 4 2 3 2 1 2 3 1 2 3 0 2 2 0 1 1 2 1 0 1 2 3 3 1 4 1 2 1 1 3 3 2 3 3 2 1 1 1 3 4 1 1 4 2 0 3 4 1 2 2 2 2 1 2 2 1
12 12 12 11 11 11 10 8 11 12 14 15 10 6 6 8 7 8 6 12 9 10 3 1 1 4 2 7 4 2 3 4 1 3 1 2 2 2 2 2 2 1 1 1 1 1 1 1 1 1 2 3 2 1 3 1 5 3 1 2 2 2 1 2 3 5 3 1 2 3 3 2 1 1 4 2 0 2 4 2 2 3 1 1 1 2 1
13 13 12 12 13 13 12 10 11 11 12 15 14 8 7 3 6 9 10 9 9 5 6 2 1 4 3 2 3 3 3 2 2 3 2 0 2 1 1 1 1 1 1 1 1 2 1 1 1 1 1 2 1 4 4 1 3 2 4 1 2 2 3 3 3 2 4 4 3 2 2 2 0 1 0 1 1 1 1 1 0 2 1 0 1 3 4
13 13 13 14 13 13 12 11 11 11 12 12 10 5 7 0 3 2 8 14 7 6 3 3 1 3 2 4 4 4 3 3 1 2 3 2 1 1 2 2 1 0 1 0 3 3 2 2 4 2 1 2 5 2 1 5 3 1 3 3 2 1 2 0 1 5 2 1 1 1 0 1 1 1 1 3 2 1 2 2 1 1 0 1 1 3 4
13 13 13 14 14 13 13 13 14 14 16 15 11 9 6 4 1 4 9 6 5 5 2 4 3 1 1 3 4 6 9 7 5 1 2 3 1 3 1 0 0 1 1 0 1 1 2 2 4 1 2 4 2 1 3 5 4 4 1 2 1 2 1 1 1 2 3 6 1 2 3 0 1 2 2 2 2 1 1 1 1 0 1 2 3 2 2
13 13 13 14 15 14 14 14 15 16 17 17 12 7 5 4 3 3 6 4 0 5 3 2 1 1 3 3 1 2 3 3 3 5 5 3 2 3 3 2 2 2 4 0 1 2 2 1 2 1 3 5 3 6 1 1 7 2 3 5 1 2 3 0 3 1 3 6 2 4 1 1 3 4 3 3 3 2 1 1 0 1 2 2 1 1 2
12 13 13 14 14 15 15 14 15 15 15 14 10 5 5 2 1 2 5 6 4 5 5 1 1 3 1 2 2 3 3 4 3 5 4 2 0 1 3 2 3 4 1 1 3 2 2 0 1 1 2 5 2 2 2 5 2 1 3 5 3 1 3 4 3 3 6 3 3 1 2 2 3 2 1 1 4 3 1 1 1 1 2 1 2 1 2
11 12 12 13 15 15 15 16 17 18 19 18 10 6 6 3 4 4 1 4 4 2 4 2 1 3 3 5 2 3 3 4 2 3 5 4 4 3 4 1 1 1 1 1 1 3 0 1 2 5 2 3 1 1 0 2 1 2 3 2 0 2 4 2 1 4 5 8 4 6 1 6 1 4 4 3 2 2 2 1 3 1 1 1 2 6 4
10 11 12 12 13 14 15 16 18 19 19 17 11 8 5 6 3 3 2 1 2 2 5 3 2 2 0 1 3 1 4 4 2 2 3 3 5 4 4 3 2 1 0 2 2 1 2 2 4 1 0 2 0 3 1 0 1 2 3 6 6 6 6 6 5 6 5 0 1 0 1 1 0 3 4 3 2 2 3 4 3 3 1 2 3 7 7
10 10 11 11 11 12 13 15 16 16 16 10 5 6 6 4 3 5 5 2 8 7 7 3 0 2 1 1 3 4 4 4 4 1 2 3 3 3 3 2 2 1 1 2 2 2 1 1 1 1 0 1 1 3 1 3 2 6 7 3 4 1 1 1 2 1 1 2 2 2 2 2 2 3 3 2 2 3 3 1 0 1 3 4 4 5 6
10 10 10 10 10 10 10 8 9 9 8 4 4 4 4 2 4 6 6 4 4 7 6 3 3 1 2 2 5 2 2 4 5 3 0 1 2 2 2 3 3 2 2 1 2 1 1 1 1 2 1 0 1 1 0 1 1 8 2 1 1 1 1 1 2 2 3 2 2 2 1 2 1 1 0 2 2 2 2 2 2 4 4 4 5 5 5
12 11 10 9 9 8 7 6 6 6 8 4 2 2 1 1 1 3 6 3 1 7 3 5 3 0 2 0 1 4 4 2 3 3 3 0 1 1 0 2 1 1 1 2 3 1 1 0 0 1 1 4 2 2 2 1 3 4 3 5 3 3 2 2 2 2 2 2 1 0 1 2 2 1 1 3 1 1 0 1 3 5 4 4 4 4 5
16 15 14 13 12 11 10 11 15 15 8 7 4 2 2 2 3 4 5 3 2 4 4 4 1 1 1 0 1 1 1 1 1 2 2 0 1 1 1 2 0 2 1 2 0 1 0 1 1 1 0 3 5 1 1 2 4 8 2 4 3 3 1 2 2 1 2 3 1 2 4 3 1 4 2 1 1 1 2 4 4 4 5 4 4 4 5
17 18 18 18 18 18 17 18 19 14 10 12 15 13 8 5 3 6 4 2 8 2 2 4 2 1 0 2 1 2 1 1 1 5 1 1 1 1 0 1 2 2 5 2 1 0 1 2 0 0 2 2 0 0 1 6 9 3 3 5 4 3 2 0 1 1 1 2 3 3 3 1 1 0 0 1 2 3 4 4 4 3 3 4 5 6 5
15 15 16 16 16 16 15 15 14 12 8 5 5 6 6 12 8 6 4 6 4 1 4 3 1 1 1 3 2 1 2 1 1 1 1 1 1 1 1 1 0 1 4 2 1 2 0 1 0 2 4 1 0 0 3 8 5 5 3 3 2 1 0 1 2 4 4 4 3 4 4 2 1 1 2 3 4 3 3 3 3 4 5 5 5 5 5
13 13 12 12 12 12 12 10 6 6 3 2 1 4 0 15 16 11 5 1 1 2 3 2 2 2 1 1 0 3 0 3 2 1 1 3 1 0 0 1 3 2 2 2 3 1 0 1 3 1 3 1 1 4 6 7 8 4 3 4 3 2 1 2 7 8 6 4 3 3 2 0 2 5 5 6 4 4 3 4 3 3 5 6 5 6 4
14 13 12 11 11 8 3 6 4 3 4 1 1 1 5 7 8 6 6 6 4 3 3 0 2 2 2 0 1 1 0 0 1 1 2 2 3 1 2 1 0 1 0 2 2 0 1 1 1 3 1 1 6 7 9 7 5 6 8 9 8 10 8 7 1 1 2 1 2 1 3 2 4 6 5 5 5 4 4 4 4 2 4 6 6 6 4
13 14 12 9 6 5 4 1 2 1 2 3 3 2 4 3 1 2 5 5 5 4 6 3 5 1 2 2 1 4 3 1 3 1 2 1 1 0 1 1 1 2 1 3 2 0 2 2 3 1 1 5 6 6 7 6 7 7 6 9 8 7 5 2 3 4 2 2 5 4 4 4 5 5 5 6 5 4 2 4 4 4 6 7 7 5 5
14 10 4 1 2 2 1 2 0 2 4 2 1 3 6 6 1 3 5 5 3 5 5 5 3 0 1 0 0 2 1 2 2 1 3 2 0 2 0 1 4 1 3 1 2 3 1 1 0 2 8 7 7 7 7 6 8 5 4 4 6 8 8 5 5 6 4 5 7 4 4 2 5 5 4 6 4 4 5 5 4 5 5 6 7 6 6
8 2 3 2 2 1 0 1 2 3 4 3 3 1 1 1 1 2 1 1 2 4 2 4 1 1 2 0 5 4 2 2 2 2 1 1 2 4 1 1 1 3 2 2 1 1 2 1 0 2 7 6 5 4 2 6 4 4 5 5 6 6 6 6 7 9 9 8 4 2 5 4 5 5 3 4 4 4 5 5 5 5 5 6 6 5 6
2 1 1 1 1 1 0 2 5 2 0 0 2 2 0 2 2 0 1 1 1 1 1 1 2 2 3 1 0 2 2 3 2 2 1 4 1 2 2 1 1 1 1 0 3 2 1 2 1 1 7 4 6 4 2 5 6 6 5 4 4 4 5 7 6 6 6 5 3 3 3 3 3 5 4 5 4 7 6 5 6 5 5 6 5 6 7
2 2 2 1 2 1 1 2 2 4 1 0 0 1 1 1 2 0 1 1 1 1 0 2 1 1 0 0 0 2 2 3 1 2 2 1 5 0 2 1 1 1 1 1 2 2 1 0 1 3 7 4 4 3 3 3 5 4 4 4 4 5 5 5 5 4 4 6 5 4 4 6 5 7 5 6 6 6 6 6 6 6 7 6 6 8 5
2 2 3 5 2 1 1 2 2 0 1 0 1 0 0 1 0 0 1 0 1 0 1 1 0 1 2 7 4 1 2 2 2 1 0 1 3 2 2 1 2 2 1 2 1 1 1 1 2 5 7 8 9 3 3 6 5 4 5 5 5 5 4 5 5 5 4 6 6 5 5 4 7 5 5 5 6 6 6 6 8 7 6 7 5 6 6
19 13 6 4 1 1 0 0 1 1 1 0 1 1 0 1 0 1 1 0 1 2 1 0 0 2 1 1 1 1 2 1 1 1 1 1 2 2 1 0 0 1 1 1 1 0 0 3 3 9 8 6 4 6 8 8 5 4 5 5 6 6 6 6 7 6 5 6 6 6 5 6 8 7 5 4 6 7 7 7 8 7 6 5 5 7 6
3 2 3 2 1 1 0 0 0 1 1 0 1 0 0 1 1 1 0 2 2 1 2 3 1 3 1 1 2 0 1 1 3 2 0 0 1 1 0 0 1 2 1 0 0 1 5 4 10 7 4 4 6 6 8 7 6 4 3 4 4 4 4 4 3 3 4 3 3 5 3 5 6 4 2 3 5 9 9 8 6 5 5 5 6 8 7
2 2 2 0 0 1 1 2 1 1 1 1 2 2 3 1 3 6 3 1 2 4 1 4 4 1 1 1 1 1 1 2 3 2 1 0 1 0 1 1 1 1 1 2 2 3 2 6 8 5 7 7 9 8 7 6 6 8 5 1 4 5 5 6 7 5 6 5 6 4 5 6 5 6 5 6 6 5 5 9 6 4 5 5 6 7 7
1 1 1 2 2 1 1 1 0 0 2 3 3 7 4 5 4 2 2 1 5 3 6 4 2 3 2 1 3 2 1 1 1 0 0 0 1 1 1 0 2 1 1 0 1 5 7 7 4 5 7 8 7 5 5 7 5 2 4 5 8 7 7 7 8 6 7 6 5 4 6 3 5 5 7 6 5 5 6 7 5 5 5 5 7 8 6
1 1 1 1 1 1 1 1 2 2 0 1 1 3 1 1 3 1 2 1 5 5 6 1 3 2 4 0 1 1 2 1 1 1 0 0 1 1 1 1 1 1 1 2 4 6 6 7 6 7 6 6 6 5 5 5 6 7 9 6 3 7 6 7 6 7 7 5 5 5 5 5 6 5 4 6 7 6 7 6 6 5 5 8 8 5 5
1 0 1 1 4 1 2 3 1 0 0 1 0 0 1 0 3 1 0 0 5 6 7 5 3 2 2 2 2 2 1 0 0 2 2 1 0 0 0 0 2 2 3 3 6 6 5 5 5 6 7 6 5 5 5 6 7 9 9 8 9 8 7 8 8 9 8 8 8 7 6 6 5 5 5 7 8 8 5 6 6 4 5 6 6 6 6
2 2 2 2 1 1 0 0 1 1 1 1 1 0 1 2 2 2 1 1 5 4 5 4 2 3 1 0 2 1 0 1 1 2 1 1 1 3 1 1 1 3 6 9 8 6 6 5 6 4 2 2 5 6 7 7 9 10 11 11 10 10 9 9 10 10 8 6 6 6 7 6 4 4 4 3 5 9 4 3 5 5 5 6 7 7 7
1 1 1 2 1 2 0 1 1 4 1 1 0 2 2 2 2 3 2 3 2 4 1 2 1 3 1 1 0 1 1 1 1 0 1 2 3 1 1 2 5 6 2 4 5 8 8 6 2 1 4 7 6 6 6 5 5 7 7 8 6 5 7 9 9 7 8 7 8 9 8 3 4 5 6 8 6 4 5 6 6 8 8 7 7 7 8
0 0 3 2 4 4 6 2 4 2 3 5 6 6 8 7 7 7 4 5 6 3 2 2 1 2 1 1 1 0 1 1 1 2 4 3 2 3 4 5 7 8 8 7 7 6 5 4 6 4 5 5 7 7 7 7 7 9 7 6 7 6 5 6 7 6 7 7 6 5 5 8 8 6 4 1 3 4 7 9 8 8 8 6 6 8 8
0 1 2 1 1 1 2 0 0 3 3 1 5 4 6 4 5 3 5 7 5 4 3 2 3 1 1 1 2 2 0 1 0 0 2 6 4 4 6 9 9 8 8 5 5 6 7 6 6 7 6 6 6 8 7 5 5 5 5 6 5 6 7 6 6 7 6 4 5 9 8 6 3 1 1 1 1 3 6 9 5 2 4 5 6 9 9
Wind_Direction
41 26 22 19 16 15 13 8 6 360 2 31 338 29 35 44 161 263 297 334 25 64 67 357 37 66 236 288 22 2 47 101 342 44 6 34 44 7 54 277 47 338 118 332 59 107 276 164 245 52 67 18 71 311 348 325 12 86 303 31 271 97 29 335 291 331 314 320 314 33 22 72 57 42 34 43 50 113 160 67 354 139 301 38 284 220 151
36 27 24 23 20 17 13 9 7 2 10 53 10 60 102 146 285 326 315 351 78 74 91 48 1 12 320 50 333 357 119 70 16 35 313 74 346 65 327 358 84 204 42 56 97 314 51 12 43 57 59 348 106 331 8 360 9 67 271 114 272 68 290 114 296 8 335 346 355 5 341 54 96 80 2 93 80 46 200 78 321 70 243 183 201 244 117
37 27 29 26 21 10 12 11 10 9 359 33 92 90 159 23 321 309 318 355 36 94 175 127 113 19 23 14 18 359 7 45 150 360 292 39 149 58 338 180 240 317 105 42 51 325 140 275 340 98 299 243 36 334 27 341 92 67 291 122 346 101 231 95 219 210 230 252 270 262 295 253 115 24 13 357 57 339 38 16 284 137 259 153 196 222 49
35 32 30 30 14 15 20 14 16 5 355 12 73 151 49 35 82 309 354 10 29 49 50 101 130 100 45 51 302 61 350 328 317 96 332 149 280 147 202 357 66 32 38 26 9 343 10 114 258 45 300 296 349 243 339 27 253 273 291 36 98 164 54 112 160 167 217 209 215 257 116 353 33 260 107 290 105 275 105 214 289 217 282 283 240 155 281
43 36 36 20 27 34 20 15 12 4 351 5 98 28 119 106 74 35 354 344 42 60 27 46 60 91 155 81 124 1 202 268 335 10 73 22 33 348 68 344 47 307 68 61 24 15 339 2 46 269 187 260 249 319 50 322 299 293 36 90 78 65 44 250 168 205 210 199 199 247 70 230 291 324 276 196 143 188 150 209 223 270 42 275 254 151 252
49 44 27 34 43 24 18 13 11 360 352 360 74 48 16 65 259 100 169 120 316 31 338 60 65 99 75 225 112 211 274 25 66 322 141 215 57 86 334 55 61 196 193 127 308 326 269 338 271 346 272 18 326 11 334 159 350 33 4 8 122 159 178 269 109 267 241 215 214 157 117 186 220 202 241 281 243 201 196 233 234 230 212 255 289 297 295
50 35 26 30 28 23 15 17 12 1 1 12 100 91 301 123 138 111 16 80 254 152 219 140 112 97 161 193 153 268 196 303 191 188 346 55 357 95 245 43 34 18 351 90 205 230 346 308 301 168 275 201 328 331 339 306 53 51 354 6 121 82 279 226 151 231 289 284 181 217 155 237 209 225 242 235 259 265 243 230 231 219 235 249 264 273 271
45 38 39 29 23 20 21 25 17 8 7 51 62 60 112 14 93 335 9 78 148 196 104 51 47 22 271 10 236 122 42 62 26 63 117 335 326 13 85 319 1 41 32 351 339 325 354 246 245 272 120 320 138 260 205 248 6 42 45 43 299 104 277 107 251 100 285 271 212 145 174 206 213 242 236 247 249 253 263 276 265 234 248 248 254 260 267
49 49 37 27 26 25 30 32 26 21 14 42 55 35 40 116 130 148 117 96 257 106 92 110 160 54 328 95 20 80 42 76 299 279 37 168 162 55 171 181 300 356 15 211 250 274 220 250 220 246 150 193 288 118 296 93 276 7 302 53 296 76 257 46 290 317 291 301 117 225 174 210 223 252 248 240 237 250 256 255 251 252 256 259 258 262 262
58 46 35 32 30 28 34 36 36 27 50 106 79 63 333 60 316 89 103 89 61 82 338 27 65 26 344 57 15 80 36 309 79 16 89 39 85 134 99 296 112 320 28 286 317 334 325 295 209 174 202 205 254 182 217 132 171 281 179 292 325 161 136 45 269 278 255 273 141 207 210 26 332 262 235 234 238 240 249 251 262 263 280 265 257 253 46
51 44 41 40 40 39 32 29 31 56 65 76 91 100 13 98 113 43 70 111 23 99 85 359 95 160 107 56 89 55 104 17 72 118 285 44 350 16 113 125 115 228 171 258 302 278 283 284 303 64 69 26 304 310 294 256 210 196 182 324 314 88 150 205 120 188 300 85 49 360 14 264 249 232 167 204 217 229 234 240 245 266 70 236 33 106 94
59 54 50 48 45 40 39 35 31 46 66 141 123 88 11 6 79 88 94 103 111 48 82 40 71 48 75 26 105 108 34 15 8 133 160 286 349 30 69 61 94 35 2 278 309 315 293 327 22 22 63 8 9 341 53 263 271 276 197 181 203 150 85 208 130 168 256 262 34 328 255 257 13 20 49 49 135 360 237 240 22 307 350 13 93 65 72
63 60 54 48 46 52 49 41 41 54 72 62 74 91 344 344 125 126 121 117 98 106 122 80 24 51 39 79 67 12 5 325 357 69 113 114 20 32 29 130 80 247 357 321 10 25 45 323 332 225 297 350 352 358 344 339 274 274 256 212 199 196 145 217 254 162 137 67 187 184 244 241 321 270 12 303 63 106 86 336 207 261 185 335 174 99 63
68 58 53 57 63 59 54 48 44 59 81 86 75 58 356 33 84 60 99 110 96 10 76 112 53 39 21 38 121 315 3 22 344 59 74 5 91 45 7 46 23 338 338 98 57 62 353 43 360 12 318 3 355 36 269 304 260 243 264 236 213 197 104 95 248 104 184 183 197 231 317 340 302 268 335 32 200 86 113 224 264 180 156 171 205 277 358
67 67 69 69 60 52 49 46 56 83 84 86 94 58 45 20 42 104 105 95 124 100 45 146 175 329 324 319 87 45 35 313 27 335 275 298 67 139 184 296 342 346 41 47 345 42 151 107 20 26 325 38 16 272 323 4 309 294 301 259 187 167 174 231 116 250 148 192 295 336 308 263 280 225 72 136 355 41 291 86 279 129 272 167 205 195 277
79 79 72 64 57 51 48 50 73 94 93 85 72 85 48 20 251 68 114 132 124 78 349 4 317 220 66 272 349 113 176 18 72 2 359 345 266 328 324 347 327 48 43 69 85 100 76 148 238 89 218 233 233 56 295 352 342 305 15 29 107 17 148 148 161 253 64 351 188 220 195 241 215 150 179 90 35 344 297 70 291 154 202 158 178 211 249
84 77 69 61 57 52 49 61 73 76 86 100 98 75 48 6 62 116 77 48 56 130 55 340 270 226 71 346 18 39 67 139 167 67 331 341 283 278 296 331 326 59 86 78 4 64 12 44 115 145 273 158 88 237 294 38 346 322 326 16 40 64 65 90 156 229 207 160 185 247 201 250 237 186 151 212 329 278 48 19 280 209 211 239 190 209 243
85 76 66 61 57 53 52 66 81 89 93 93 91 86 13 9 70 90 68 94 111 74 37 345 301 107 129 178 167 259 53 20 19 5 126 255 358 10 304 352 350 330 107 84 45 62 65 125 195 171 236 249 163 77 256 170 231 223 280 131 280 24 341 106 208 189 236 219 260 335 303 286 241 231 242 283 214 74 96 214 240 168 190 210 221 230 235
85 75 66 59 52 51 56 68 97 101 99 106 99 54 26 2 4 82 103 72 75 97 302 316 115 145 228 291 199 164 153 147 157 98 329 5 47 278 184 250 192 308 1 150 61 118 128 263 91 130 145 295 51 225 195 32 239 264 112 360 351 330 136 300 64 159 217 213 188 236 241 242 159 212 292 256 67 113 215 236 16 152 192 201 214 194 152
84 76 65 56 53 54 57 71 82 85 85 94 93 104 135 9 358 109 116 104 73 117 343 350 37 63 355 104 95 66 351 28 47 129 152 154 276 29 28 17 317 55 341 49 347 224 107 241 211 84 286 215 249 164 94 247 261 195 177 217 151 208 137 231 202 232 54 69 247 320 301 276 103 177 38 347 140 221 119 148 232 180 291 204 256 139 262
86 74 64 58 58 58 59 86 101 96 92 95 98 102 45 359 20 37 90 125 129 107 22 316 61 67 63 67 72 147 133 138 139 92 227 186 213 87 111 198 230 88 224 128 140 249 161 291 277 198 215 142 262 54 218 216 323 281 141 205 217 211 109 260 275 178 218 165 173 204 209 195 222 215 176 232 301 116 174 140 142 149 245 239 285 282 55
84 76 67 64 62 61 64 77 102 97 99 102 98 94 84 17 47 68 80 71 85 107 166 197 172 110 85 95 93 84 105 123 199 151 125 8 318 151 200 146 183 147 223 92 29 349 355 194 67 37 311 295 8 223 159 12 274 271 336 81 327 233 174 187 192 257 147 209 212 237 214 209 275 242 307 150 154 133 180 99 95 168 126 117 316 291 317
89 79 71 66 65 66 69 76 88 99 99 97 81 69 122 92 31 9 81 80 71 73 47 33 13 14 26 74 65 48 48 17 81 112 122 107 351 16 101 61 324 332 302 82 186 172 196 135 239 174 307 195 200 259 288 174 233 280 186 240 203 327 131 64 90 273 268 237 157 90 62 233 245 54 146 150 126 113 95 144 175 83 60 38 268 301 299
93 85 77 69 67 70 76 80 84 87 84 85 95 113 91 99 139 72 69 76 103 125 59 20 69 21 6 345 333 9 27 15 4 31 150 124 103 312 323 73 197 29 30 288 161 147 216 158 222 149 226 246 99 211 206 287 232 195 101 288 307 264 126 87 164 275 46 276 82 212 215 167 148 131 93 88 122 147 126 99 143 347 339 296 295 278 289
102 93 83 76 70 72 79 85 88 89 93 93 82 69 87 46 20 78 104 115 130 102 146 313 5 219 259 269 10 31 22 341 349 54 41 57 124 148 204 217 185 169 239 258 4 44 33 180 305 234 223 261 142 261 227 181 287 151 232 267 6 324 171 109 209 155 182 249 215 231 276 261 191 171 167 173 142 98 81 74 50 294 290 279 277 65 289
111 103 93 84 80 78 78 82 89 93 93 86 76 75 79 50 315 80 84 63 94 107 103 131 279 306 325 36 27 336 308 347 10 58 56 42 75 170 224 328 338 50 88 166 94 152 186 335 186 189 165 271 81 205 236 204 190 302 169 235 199 171 126 227 163 187 271 291 221 209 204 207 194 175 151 138 147 180 216 248 262 294 274 296 325 251 251
122 111 102 99 94 88 86 89 90 91 87 83 78 78 91 79 30 70 121 156 96 12 44 104 267 297 6 63 352 347 346 348 10 70 40 33 36 29 72 126 229 4 72 334 223 158 185 180 141 241 190 244 97 201 148 335 187 228 236 275 185 100 219 210 98 282 263 248 247 146 253 283 209 203 179 139 149 145 246 283 293 254 238 274 307 300 283
125 125 120 112 107 101 95 93 94 93 92 88 85 79 73 67 31 57 79 114 117 182 165 155 139 236 214 61 353 355 329 3 7 65 73 37 39 47 65 93 124 85 12 91 346 191 174 185 245 210 103 319 26 287 148 321 72 333 243 227 172 192 214 142 208 192 250 231 187 267 73 32 26 148 150 150 189 191 217 238 228 227 225 243 277 293 300
123 125 128 125 118 113 114 111 105 101 99 99 96 81 53 76 40 33 52 60 104 99 89 119 321 43 113 236 6 360 353 3 354 28 117 50 42 41 46 69 107 164 85 71 84 95 135 215 126 120 165 221 108 272 12 255 196 235 233 218 183 223 75 239 223 74 324 154 183 164 157 207 152 145 158 189 192 192 236 197 190 243 262 271 268 256 273
114 119 122 125 126 126 128 129 130 123 95 57 51 45 46 335 357 18 35 58 98 115 106 122 91 248 302 12 344 325 326 338 350 358 310 119 42 35 22 36 22 56 109 145 155 243 218 157 298 282 285 304 163 222 136 212 230 253 254 255 234 106 147 163 188 209 249 114 170 188 204 258 58 105 140 157 146 137 176 240 243 270 277 256 260 270 251
103 104 108 113 120 126 128 135 132 117 75 65 72 46 45 56 334 350 17 59 81 100 120 91 113 243 24 235 132 347 333 328 349 342 315 176 121 88 351 73 11 59 47 354 44 176 128 11 18 294 286 231 209 163 204 175 265 300 264 190 194 171 183 157 87 94 124 146 87 22 355 280 270 338 288 149 150 127 225 254 266 273 272 271 260 257 271
97 98 97 98 98 99 99 100 94 80 68 71 92 163 191 191 225 289 32 61 78 60 79 86 21 3 223 174 240 287 7 331 4 342 322 91 5 340 17 89 172 285 74 127 196 60 30 217 111 291 136 334 24 165 95 142 225 250 213 184 193 180 155 142 139 110 91 106 109 354 310 285 185 192 229 149 283 249 256 259 265 257 274 282 278 273 262
99 96 96 96 97 97 98 96 93 93 97 96 80 70 57 48 52 44 67 60 49 97 119 85 147 218 146 235 321 330 69 35 353 12 320 294 289 45 34 13 23 54 349 63 360 120 211 128 199 7 261 12 127 188 155 223 226 244 209 200 190 177 186 177 130 160 169 189 161 185 226 222 228 235 192 267 261 268 279 280 274 296 307 303 298 294 285
107 106 103 102 99 95 91 90 84 82 55 44 15 11 18 45 36 55 87 76 107 104 76 105 66 53 229 311 69 289 43 92 277 44 23 316 132 85 235 35 294 213 321 98 247 61 314 98 67 230 356 14 95 61 280 253 246 252 252 230 208 183 70 300 260 249 232 221 229 232 241 226 254 294 309 286 289 279 267 276 286 294 281 279 281 275 278
114 111 110 103 99 95 86 72 47 49 88 80 104 250 337 54 56 39 46 107 75 349 32 33 111 70 1 358 64 273 108 80 332 263 150 267 10 147 260 76 324 69 281 88 49 121 136 232 187 70 251 289 28 239 244 258 268 247 257 252 244 144 41 310 269 231 229 225 220 240 256 328 326 290 276 285 279 283 303 288 262 249 280 276 275 282 282
119 116 114 110 98 85 59 48 58 42 25 34 222 266 81 76 66 63 54 63 106 155 95 243 71 129 147 10 312 275 55 340 270 339 221 231 346 4 101 118 15 260 171 77 216 356 88 299 69 267 291 104 229 204 230 207 212 215 204 215 206 180 198 189 207 210 189 158 182 293 313 309 249 260 272 271 276 279 257 266 287 252 251 277 281 281 285
124 121 110 83 51 37 39 50 16 61 191 218 185 110 42 61 140 62 11 39 19 81 123 144 67 208 163 218 276 279 59 330 340 28 338 36 215 253 52 43 220 171 65 3 28 42 255 31 109 221 266 199 246 232 224 202 185 189 210 221 213 208 216 234 175 136 126 277 312 289 262 264 272 266 262 266 261 261 279 266 251 261 277 276 282 285 276
128 109 81 40 44 45 356 333 270 209 160 101 347 50 353 29 61 341 8 29 327 56 8 62 93 236 2 86 284 271 4 262 84 65 306 246 281 295 219 157 222 245 281 265 248 186 116 35 207 189 264 252 260 253 237 213 223 213 201 195 197 200 201 182 148 130 150 301 300 276 259 251 260 258 232 262 254 257 245 248 261 252 255 267 269 277 291
115 92 51 34 93 90 162 235 254 148 96 58 56 69 328 18 57 26 334 299 7 26 314 92 171 169 116 343 265 310 133 180 323 20 90 283 55 312 39 63 322 67 308 23 319 103 326 308 348 14 279 288 326 274 233 208 224 216 210 205 186 189 182 183 179 177 187 200 194 191 172 212 238 264 215 237 258 251 254 260 265 262 252 261 270 277 278
50 66 116 50 97 209 191 342 346 174 243 248 341 104 99 338 98 204 355 50 9 288 29 32 187 172 171 156 64 303 2 63 13 315 208 299 290 159 266 96 263 85 285 120 256 33 103 285 288 16 284 265 246 252 204 205 202 223 204 216 197 188 182 184 201 212 209 235 223 212 211 224 221 236 250 249 261 276 275 262 255 264 269 265 267 269 265
78 95 65 110 219 227 273 331 9 48 61 26 360 1 81 5 34 209 52 78 153 232 163 142 45 17 318 98 95 189 316 71 195 135 119 219 248 90 55 223 243 82 240 221 285 63 59 4 308 206 242 234 230 244 200 203 214 225 209 200 193 188 191 198 209 203 204 235 249 248 236 226 229 234 239 242 245 251 260 266 271 264 264 267 268 264 262
172 138 161 132 126 126 18 22 62 72 2 111 127 288 277 224 329 357 147 157 246 207 296 137 289 185 249 172 202 158 294 172 131 98 79 329 324 112 216 299 354 124 241 239 146 60 81 244 279 280 255 250 247 242 191 216 229 215 224 200 197 191 189 198 212 228 208 218 232 237 239 224 228 233 233 231 237 243 254 264 269 268 258 261 267 274 275
100 103 89 81 48 1 104 107 301 104 133 341 35 344 16 46 214 151 241 301 311 106 256 86 192 159 142 72 337 155 177 216 314 326 62 224 315 55 87 355 56 321 242 351 66 49 249 239 242 249 253 258 236 206 212 213 216 206 213 195 199 197 190 198 207 223 218 213 225 231 234 233 238 239 232 225 244 268 260 248 252 265 271 268 267 269 269
97 65 47 344 70 280 83 317 286 360 329 115 102 235 284 344 294 40 359 257 189 273 211 134 224 97 225 323 138 269 7 311 143 95 7 310 79 317 49 269 218 241 84 45 66 204 227 231 221 229 245 273 282 241 227 222 215 209 233 224 208 202 200 206 207 217 243 228 232 236 237 236 250 266 251 233 218 236 258 265 257 251 261 268 272 269 267
68 360 39 18 12 266 53 285 18 112 235 262 136 188 162 232 249 178 192 239 99 191 118 78 113 94 177 269 49 305 310 224 331 97 245 35 26 220 111 256 259 32 94 248 309 299 316 267 268 272 261 259 253 232 212 207 192 190 197 191 210 207 200 202 219 217 232 223 229 227 237 246 249 258 257 250 245 230 240 260 264 261 259 259 267 275 271
96 179 105 74 314 292 114 219 11 290 270 140 200 196 166 229 167 210 239 100 106 129 135 156 111 109 117 242 132 218 348 62 54 241 152 74 101 284 252 225 102 56 352 33 284 239 223 235 251 249 226 222 237 235 200 204 193 169 134 206 220 206 214 212 221 221 228 231 235 209 237 232 235 252 263 260 259 256 243 249 255 248 256 262 260 257 268
85 22 82 119 144 276 78 186 234 202 191 224 215 180 167 183 190 165 171 109 130 159 106 135 124 152 140 235 22 14 45 48 127 260 87 31 193 261 24 94 274 196 157 265 248 252 264 256 239 238 242 241 249 236 210 199 182 186 207 217 192 213 215 216 223 226 235 224 237 242 244 240 244 245 268 291 279 254 253 254 254 239 229 241 255 265 269
127 241 106 223 239 164 191 250 118 73 35 128 255 228 230 201 83 109 260 107 133 125 126 115 82 16 33 294 88 177 217 311 74 295 148 214 320 60 10 11 265 246 202 182 234 220 232 245 234 231 229 214 202 194 207 210 212 209 213 215 220 222 216 209 222 233 227 216 223 228 239 242 241 239 237 249 274 281 265 259 256 247 238 251 260 261 257
138 130 188 211 208 166 199 257 67 267 261 328 318 45 116 128 201 202 187 115 115 143 158 114 176 97 98 301 97 64 304 273 117 254 28 22 126 215 162 238 296 304 248 189 227 221 222 231 224 219 237 205 211 199 207 196 191 197 205 209 216 217 211 211 219 226 218 217 223 226 239 239 225 233 246 263 272 277 264 244 248 248 236 240 250 254 261
95 297 47 82 319 288 195 210 63 293 305 350 290 236 173 123 159 221 185 110 139 115 83 97 113 98 205 101 320 23 253 259 143 26 79 232 211 220 83 284 230 197 254 237 228 242 235 237 203 222 234 217 220 204 213 220 204 207 214 215 219 203 206 210 225 230 223 217 217 222 230 230 230 229 230 240 247 281 302 285 266 259 256 239 235 243 247
13 129 239 178 192 231 142 194 199 228 285 241 204 215 178 197 175 181 178 132 129 80 53 130 190 98 102 32 82 352 245 148 100 190 169 210 195 132 193 209 239 211 228 226 217 230 219 208 186 212 228 229 227 221 216 208 198 210 209 205 213 210 220 213 223 225 228 226 222 218 226 229 229 225 241 268 297 315 305 289 260 242 246 241 223 225 237
98 230 248 297 46 159 177 124 61 217 225 199 189 225 155 189 188 173 162 131 135 115 179 179 100 79 78 210 221 189 156 60 199 10 317 255 167 166 217 205 227 223 218 233 254 233 222 219 207 201 196 206 218 219 213 208 208 217 207 213 203 202 215 218 221 222 225 225 214 214 235 239 238 218 206 214 278 309 288 278 275 221 225 229 233 225 229